Terminal Aerodrome Forecast
Issued by NWS Brownsville, TX

Home | Current Version | Previous Version | Text Only | Print | Product List | Glossary On
Versions: 1 2 3 4 5 6 7 8 9 10 11 12 13 14 15 16 17 18 19 20 21 22 23 24 25 26
000
FTUS44 KBRO 271135
TAFHRL
TAF
KHRL 271135Z 2712/2812 01003KT P6SM VCSH BKN050
      TEMPO 2713/2716 3SM SHRA BKN025
     FM271600 05005KT P6SM VCTS SCT035CB BKN050
     FM272200 08008KT P6SM SCT040 BKN200
     FM280300 VRB03KT P6SM FEW040 SCT250=

USA.gov is the U.S. government's official web portal to all federal, state and local government web resources and services.